This is the latest recevied weather packets stored in our database for station/object WE0DX-1. If no packets are shown the sender has not sent any weather packets the latest 10 day(s).
| Time | Temp. | Humidity | Pressure | Rain* | Wind** | Luminosity | Snow |
|---|---|---|---|---|---|---|---|
| 1777823343 | 19.44° C | 50% | 1012.7 hPa | 0 mm | - | 755 W/m² | - |
| 1777823041 | 19.44° C | 49% | 1013 hPa | 0 mm | - | 745 W/m² | - |
| 1777822739 | 18.89° C | 49% | 1012.7 hPa | 0 mm | - | 701 W/m² | - |
| 1777822436 | 18.89° C | 49% | 1012.5 hPa | 0 mm | - | 667 W/m² | - |
| 1777822134 | 18.89° C | 50% | 1012.3 hPa | 0 mm | - | 634 W/m² | - |
| 1777821831 | 18.33° C | 51% | 1012.2 hPa | 0 mm | - | 616 W/m² | - |
| 1777821528 | 17.78° C | 50% | 1012.2 hPa | 0 mm | - | 607 W/m² | - |
| 1777821226 | 17.78° C | 50% | 1012.2 hPa | 0 mm | - | 593 W/m² | - |
| 1777820923 | 17.78° C | 50% | 1012.7 hPa | 0 mm | - | 605 W/m² | - |
| 1777820619 | 17.78° C | 50% | 1012.8 hPa | 0 mm | - | 564 W/m² | - |
| 1777820316 | 17.22° C | 51% | 1012.5 hPa | 0 mm | - | 531 W/m² | - |
| 1777820014 | 17.22° C | 50% | 1013 hPa | 0 mm | - | 489 W/m² | - |
| 1777819710 | 17.22° C | 49% | 1012.7 hPa | 0 mm | - | 506 W/m² | - |
| 1777819409 | 17.22° C | 50% | 1012.8 hPa | 0 mm | - | 465 W/m² | - |
| 1777819105 | 16.67° C | 50% | 1012.5 hPa | 0 mm | - | 433 W/m² | - |
| 1777818802 | 16.67° C | 51% | 1012.9 hPa | 0 mm | - | 445 W/m² | - |
| 1777818498 | 16.11° C | 51% | 1013.1 hPa | 0 mm | - | 355 W/m² | - |
| 1777818195 | 16.11° C | 52% | 1013.2 hPa | 0 mm | - | 210 W/m² | - |
| 1777817892 | 15.56° C | 51% | 1012.9 hPa | 0 mm | - | 217 W/m² | - |
| 1777817589 | 15.56° C | 53% | 1013.2 hPa | 0 mm | - | 183 W/m² | - |
| 1777817286 | 15° C | 52% | 1013.3 hPa | 0 mm | - | 220 W/m² | - |
| 1777816983 | 15° C | 52% | 1013 hPa | 0 mm | - | 165 W/m² | - |
| 1777816679 | 15° C | 51% | 1013.3 hPa | 0 mm | - | 308 W/m² | - |
| 1777816376 | 15° C | 51% | 1013.4 hPa | 0 mm | - | 169 W/m² | - |
| 1777816074 | 14.44° C | 51% | 1013.4 hPa | 0 mm | - | 224 W/m² | - |
* Rain latest hour (hover to see other rain measurements)
** Current wind speed in m/s (hover to see current wind gust speed)